Location: ????????
(55.5667°N, 37.5833°E)
Time: 09:44:34
(UTC+00:00)

Cosmos 1356 Rocket - Pass Details

Date: 14 April 2026
Orbit: 514 x 556 km, 81.1° (Epoch: 19 May)

Event Time Altitude Azimuth Distance (km) Brightness Sun altitude
Exits shadow 20:15:29 66° 65° (ENE) 609 3.4 -23.0°
Drops below altitude 10° 20:19:12 10° 18° (NNE) 1,839 6.7 -23.1°
Sets 20:21:22 0° 16° (NNE) 2,731 7.7 -23.2°
